Weather History for KEWR - September, 2014

Change the Weather History Date:

Monday, September 8, 2014

  Actual Average Record
Temperature  
Mean Temperature 70 °F 71 °F  
Max Temperature 77 °F 80 °F 94 °F (1939)
Min Temperature 62 °F 63 °F 50 °F (1940)
Degree Days  
Heating Degree Days 0 0  
Month to date heating degree days 0 0  
Since 1 July heating degree days 0 1  
Cooling Degree Days 5 6  
Month to date cooling degree days 109 59  
Year to date cooling degree days 1094 1093  
Growing Degree Days 20 (Base 50)    
Moisture  
Dew Point 55 °F    
Average Humidity 59    
Maximum Humidity 72    
Minimum Humidity 46    
Precipitation  
Precipitation 0.00 in 0.12 in 2.93 in (1934)
Month to date precipitation 0.34 0.91  
Year to date precipitation 34.96 32.28  
Snow  
Snow 0.00 in 0.00 in 0.00 in (2002)
Month to date snowfall 0.0 0.0  
Since 1 July snowfall 0.0 0.0  
Snow Depth 0.00 in    
Sea Level Pressure  
Sea Level Pressure 30.27 in    
Wind  
Wind Speed 9 mph (NE)    
Max Wind Speed 17 mph    
Max Gust Speed 23 mph    
Visibility 10 miles    
Events      
T = Trace of Precipitation, MM = Missing Value Source: NWS Daily Summary

Daily Weather History Graph

Daily Weather History Graph

Search for Another Location

Airport or City:

Trip Planner

Search our weather history database for the weather conditions in past years. The results will help you decide how hot, cold, wet, or windy it might be!

Date:

Astronomy

Sep. 08, 2014 Rise Set
Actual Time 6:30 AM EDT 7:17 PM EDT
Civil Twilight 6:02 AM EDT 7:45 PM EDT
Nautical Twilight 5:29 AM EDT 8:17 PM EDT
Astronomical Twilight 4:55 AM EDT 8:51 PM EDT
Moon 6:55 PM EDT (9/8) 5:52 AM EDT (9/8)
Length of Visible Light 13h 42m
Length of Day
12h 46m
Full, 100% of the Moon is Illuminated
Sep 8
Full
Sep 8
Full
Sep 15
Last Quarter
Sep 24
New
Oct 1
First Quarter

Hourly Weather History & Observations

Time (EDT) Temp. Dew Point Humidity Pressure Visibility Wind Dir Wind Speed Gust Speed Precip Events Conditions
12:51 AM 66.0 °F 53.1 °F 63% 30.20 in 10.0 mi NNE 6.9 mph - N/A   Mostly Cloudy
1:51 AM 64.9 °F 53.1 °F 65% 30.20 in 10.0 mi NNE 8.1 mph - N/A   Mostly Cloudy
2:51 AM 66.0 °F 53.1 °F 63% 30.21 in 10.0 mi NNE 9.2 mph - N/A   Mostly Cloudy
3:51 AM 64.0 °F 54.0 °F 70% 30.22 in 10.0 mi NNE 9.2 mph - N/A   Mostly Cloudy
4:51 AM 62.6 °F 53.6 °F 72% 30.23 in 10.0 mi North 8.1 mph - N/A   Mostly Cloudy
5:51 AM 63.0 °F 54.0 °F 72% 30.24 in 10.0 mi NNE 8.1 mph - N/A   Mostly Cloudy
6:51 AM 63.0 °F 54.0 °F 72% 30.26 in 10.0 mi North 9.2 mph - N/A   Scattered Clouds
7:51 AM 66.0 °F 55.9 °F 70% 30.28 in 10.0 mi NNE 9.2 mph - N/A   Scattered Clouds
8:51 AM 69.1 °F 57.9 °F 68% 30.28 in 10.0 mi NNE 10.4 mph - N/A   Scattered Clouds
9:51 AM 72.0 °F 60.1 °F 66% 30.30 in 10.0 mi NE 8.1 mph - N/A   Scattered Clouds
10:51 AM 73.0 °F 60.1 °F 64% 30.31 in 10.0 mi NE 10.4 mph - N/A   Mostly Cloudy
11:51 AM 75.0 °F 57.9 °F 55% 30.31 in 10.0 mi ENE 9.2 mph 17.3 mph N/A   Mostly Cloudy
12:51 PM 73.9 °F 57.9 °F 57% 30.30 in 10.0 mi ENE 5.8 mph - N/A   Mostly Cloudy
1:51 PM 75.0 °F 53.1 °F 46% 30.31 in 10.0 mi ESE 8.1 mph 17.3 mph N/A   Mostly Cloudy
2:51 PM 75.0 °F 53.1 °F 46% 30.30 in 10.0 mi East 11.5 mph 20.7 mph N/A   Mostly Cloudy
3:51 PM 73.9 °F 55.0 °F 52% 30.30 in 10.0 mi East 13.8 mph 19.6 mph N/A   Mostly Cloudy
4:51 PM 73.9 °F 54.0 °F 50% 30.30 in 10.0 mi East 12.7 mph 18.4 mph N/A   Mostly Cloudy
5:51 PM 73.4 °F 55.4 °F 53% 30.29 in 10.0 mi East 6.9 mph 17.3 mph N/A   Mostly Cloudy
6:51 PM 73.0 °F 54.0 °F 51% 30.28 in 10.0 mi East 4.6 mph - N/A   Mostly Cloudy
7:51 PM 71.1 °F 55.0 °F 57% 30.28 in 10.0 mi ENE 10.4 mph - N/A   Mostly Cloudy
8:51 PM 70.0 °F 57.0 °F 63% 30.29 in 10.0 mi ENE 10.4 mph 17.3 mph N/A   Mostly Cloudy
9:51 PM 70.0 °F 57.0 °F 63% 30.28 in 10.0 mi East 9.2 mph 16.1 mph N/A   Mostly Cloudy
10:51 PM 69.1 °F 55.9 °F 63% 30.28 in 10.0 mi ENE 9.2 mph 19.6 mph N/A   Mostly Cloudy
11:51 PM 68.0 °F 55.9 °F 65% 30.28 in 10.0 mi ENE 9.2 mph - N/A   Mostly Cloudy